Weather in Tokchin

Russia / Zabaykalsky Krai     50°30′46″N   114°08′00″E
temp.,
°C
wind,
m/s
gust,
m/s
humid.,
%
clouds,
%
prec.,
mm/h
press.,
hPa
HPBL,
m
26 october, tue
tue2600:00+3wnw916655 0.0 1020811
03:00+2wnw815675 0.0 1021662
06:000wnw612730 0.0 1023391
09:00−1w49784 0.0 1024254
12:00+5w6953100 0.0 1021651
15:00+9w810345 0.0 10171093
18:00+7w51137100 0.0 1016216
21:00+6w71444100 0.0 1016441
27 october, wed
wed2700:00+4w511530 0.0 1018217
03:00+2w47586 0.0 1019113
06:00+1w34640 0.0 102055
09:00+1w22650 0.0 102120
12:00+7w234319 0.0 1020378
15:00+9sw12335 0.0 1018655
18:00+7ese12385 0.0 101811
21:00+5sse335180 0.0 101932
28 october, thu
thu2800:00+3s22575 0.0 101919
03:00+2sw11595 0.0 101810
06:00+1w11635 0.0 101910
09:00+1w11638 0.0 102010
12:00+7wnw224454 0.0 1018311
15:00+10nnw23355 0.0 1016907
18:00+7n22461 0.0 101813
21:00+4nw22515 0.0 102010
29 october, fri
fri2900:00+2wnw225869 0.0 102211
03:00+1wnw2262100 0.0 102316
06:00+2nw4861100 0.0 1025178
09:00+1nw3557100 0.0 1027164
12:00+4nne6845100 0.0 1029732
15:00+5nne5633100 0.0 10281001
18:00+3ne3430100 0.0 103177
21:000ne2233100 0.0 103313
30 october, sat
sat3000:00−1nne1137100 0.0 103410
03:00−2nnw114027 0.0 103510
06:00−3nw11415 0.0 103610
09:00−3wsw11400 0.0 103710
12:00+2wsw11290 0.0 1035373
15:00+5wsw23320 0.0 1033724
18:00+2wsw11435 0.0 103310
21:000ssw22456 0.0 103311